Time[GMT],dominant_wave_period[s](0m),mean_wave_direction[degrees](0m),max_wave_height[m](0m),significant_wave_height[m](0m),mean_wave_direction_spread[degrees](0m)
2023-03-23 15:00,11.1,45.60,1.74,1.03,
2023-03-23 16:00,11.1,45.60,1.46,0.93,
2023-03-23 18:00,11.1,40.60,2.01,1.04,
2023-03-23 19:00,11.1,46.60,1.72,1.02,
2023-03-23 21:00,10.5,38.60,1.65,1.07,
2023-03-23 22:00,11.1,44.60,2.03,1.07,
2023-03-23 23:00,11.1,28.60,1.73,1.11,
2023-03-24 00:00,10.5,25.60,1.82,1.04,
2023-03-24 01:00,10.5,27.60,1.54,0.98,
2023-03-24 02:00,8.3,25.60,1.70,1.06,
2023-03-24 03:00,8.7,31.60,1.61,1.04,
2023-03-24 04:00,10.5,31.60,2.00,1.12,
2023-03-24 05:00,9.5,34.60,1.66,1.16,
2023-03-24 06:00,10.0,36.60,1.78,1.10,
2023-03-24 07:00,9.5,41.60,1.58,1.06,
2023-03-24 08:00,10.0,37.60,2.00,1.10,
2023-03-24 09:00,11.1,35.60,1.63,1.10,
2023-03-24 10:00,10.0,36.60,2.12,1.11,
2023-03-24 11:00,11.1,34.60,1.95,1.10,
2023-03-24 12:00,11.1,26.60,1.83,1.12,
2023-03-24 13:00,10.0,31.60,1.56,1.04,
2023-03-24 14:00,10.5,32.60,2.03,1.08,
2023-03-24 15:00,10.0,31.60,1.84,1.15,
2023-03-24 16:00,11.1,41.60,2.13,1.27,
2023-03-24 17:00,5.4,43.60,2.17,1.27,
2023-03-24 18:00,11.1,45.60,1.87,1.26,
2023-03-24 19:00,10.5,35.60,2.04,1.28,
2023-03-24 20:00,11.1,38.60,2.22,1.28,
2023-03-24 21:00,10.5,37.60,2.19,1.27,
2023-03-24 22:00,27.2,295.80,,,
2023-03-24 23:00,10.5,29.60,2.22,1.32,
2023-03-25 00:00,,,,,
2023-03-25 01:00,10.0,24.60,2.01,1.32,
2023-03-25 02:00,11.1,22.60,1.95,1.35,
2023-03-25 03:00,10.0,25.60,2.16,1.37,
2023-03-25 04:00,10.5,26.60,2.12,1.38,
2023-03-25 05:00,11.1,35.60,1.80,1.31,
2023-03-25 06:00,11.1,34.60,2.48,1.38,
2023-03-25 07:00,23.4,10.11,,,
2023-03-25 08:00,11.1,35.60,2.10,1.42,
2023-03-25 09:00,10.5,38.60,2.13,1.49,
2023-03-25 10:00,11.1,46.60,2.15,1.48,
2023-03-25 11:00,11.1,41.60,2.30,1.36,
2023-03-25 12:00,,,,,
2023-03-25 13:00,11.1,43.60,2.25,1.42,
2023-03-25 14:00,10.5,42.60,2.38,1.49,
2023-03-25 15:00,10.5,40.60,3.10,1.53,
2023-03-25 16:00,10.0,42.60,2.43,1.63,
2023-03-25 17:00,9.1,46.60,2.29,1.48,
2023-03-25 18:00,18.2,48.60,2.46,1.44,
2023-03-25 19:00,10.5,53.60,2.31,1.51,
2023-03-25 20:00,10.5,55.60,2.23,1.46,
2023-03-25 21:00,10.5,54.60,2.31,1.30,
2023-03-25 22:00,16.7,54.60,2.15,1.36,
2023-03-25 23:00,16.7,46.60,2.26,1.39,
2023-03-26 00:00,16.7,46.60,2.08,1.25,
2023-03-26 01:00,10.0,46.60,2.24,1.26,
2023-03-26 02:00,9.1,41.60,1.94,1.22,
2023-03-26 03:00,9.5,40.60,2.06,1.32,
2023-03-26 04:00,,,,,
2023-03-26 05:00,16.7,40.60,2.18,1.34,
2023-03-26 06:00,15.4,41.60,1.90,1.22,
2023-03-26 07:00,15.4,47.60,2.05,1.30,
2023-03-26 08:00,16.7,46.60,1.65,1.21,
2023-03-26 09:00,16.7,50.60,2.10,1.22,
2023-03-26 10:00,16.7,52.60,1.98,1.30,
2023-03-26 11:00,16.7,53.60,2.27,1.30,
2023-03-26 12:00,15.4,50.60,1.94,1.34,
2023-03-26 13:00,15.4,48.60,1.78,1.21,
2023-03-26 14:00,15.4,38.60,2.11,1.29,
2023-03-26 15:00,15.4,39.60,2.00,1.21,
2023-03-26 16:00,9.5,44.60,1.99,1.11,
2023-03-26 17:00,15.4,44.60,2.13,1.21,
2023-03-26 18:00,16.7,54.60,2.04,1.18,
2023-03-26 19:00,15.4,54.60,2.48,1.19,
2023-03-26 20:00,15.4,60.60,1.98,1.12,
2023-03-26 21:00,15.4,62.60,1.88,1.12,
2023-03-26 22:00,15.4,57.60,1.83,1.10,
2023-03-26 23:00,15.4,57.60,1.86,1.14,
2023-03-27 00:00,15.4,61.60,1.69,1.01,
2023-03-27 01:00,15.4,56.60,1.72,1.02,
2023-03-27 02:00,15.4,45.60,1.54,1.04,
2023-03-27 03:00,6.1,44.60,1.61,1.03,
2023-03-27 04:00,16.7,48.60,1.60,1.04,
2023-03-27 05:00,15.4,52.60,1.71,1.15,
2023-03-27 06:00,15.4,62.60,1.84,1.19,
2023-03-27 07:00,15.4,60.60,1.84,1.09,
2023-03-27 08:00,14.3,65.60,1.61,1.13,
2023-03-27 09:00,5.7,70.60,1.83,1.16,
2023-03-27 10:00,15.4,67.60,1.88,1.18,
2023-03-27 11:00,4.9,69.60,1.95,1.12,
2023-03-27 12:00,6.1,72.60,2.25,1.19,
2023-03-27 13:00,5.6,64.60,2.04,1.10,
2023-03-27 14:00,6.1,59.60,1.94,1.10,
2023-03-27 15:00,15.4,53.60,1.90,1.02,
2023-03-27 16:00,15.4,57.60,1.70,1.09,
2023-03-27 17:00,5.7,59.60,1.70,1.11,
2023-03-27 18:00,4.8,64.60,1.70,1.02,
2023-03-27 19:00,5.9,59.60,1.62,1.10,
2023-03-27 20:00,,,,,
2023-03-27 21:00,16.7,65.60,1.86,1.16,
2023-03-27 22:00,5.6,66.60,1.58,1.02,
2023-03-27 23:00,16.7,63.60,1.77,1.12,
2023-03-28 00:00,15.4,61.60,2.11,1.07,
2023-03-28 01:00,15.4,53.60,1.52,1.05,
2023-03-28 02:00,16.7,56.60,1.50,0.98,
2023-03-28 03:00,15.4,50.60,1.60,1.04,
2023-03-28 04:00,16.7,52.60,1.66,1.08,
2023-03-28 05:00,16.7,55.60,1.55,1.06,
2023-03-28 06:00,14.3,53.60,1.60,1.05,
2023-03-28 07:00,15.4,50.60,1.53,1.06,
2023-03-28 08:00,15.4,52.60,1.67,1.06,
2023-03-28 09:00,13.3,54.60,1.73,1.07,
2023-03-28 10:00,15.4,52.60,2.02,1.22,
2023-03-28 11:00,15.4,57.60,1.80,1.17,
2023-03-28 12:00,16.7,54.60,1.84,1.18,
2023-03-28 13:00,15.4,51.60,1.56,1.12,
2023-03-28 14:00,14.3,56.60,1.83,1.03,
2023-03-28 15:00,13.3,52.60,1.86,1.17,
2023-03-28 16:00,14.3,48.60,1.95,1.17,
2023-03-28 17:00,14.3,50.60,1.95,1.18,
2023-03-28 18:00,13.3,47.60,2.07,1.20,
2023-03-28 19:00,14.3,43.60,2.18,1.16,
2023-03-28 20:00,14.3,52.60,2.03,1.27,
2023-03-28 21:00,14.3,50.60,2.11,1.24,
2023-03-28 22:00,14.3,45.60,1.94,1.14,
2023-03-28 23:00,14.3,52.60,1.80,1.18,
2023-03-29 00:00,,110.30,,9.27,
2023-03-29 01:00,13.3,48.60,1.87,1.18,
2023-03-29 02:00,13.3,44.60,1.69,1.19,
2023-03-29 03:00,12.5,38.60,1.95,1.15,
2023-03-29 04:00,12.5,41.60,1.80,1.22,
2023-03-29 05:00,13.3,39.60,1.57,0.99,
2023-03-29 06:00,13.3,38.60,1.58,1.04,
2023-03-29 07:00,14.3,37.60,2.13,1.01,
2023-03-29 08:00,13.3,41.60,1.99,1.11,
2023-03-29 09:00,12.5,46.60,1.95,1.04,
2023-03-29 10:00,11.8,37.60,1.60,1.01,
2023-03-29 11:00,12.5,52.60,1.49,0.94,
2023-03-29 12:00,11.8,55.60,1.78,1.07,
2023-03-29 13:00,12.5,57.60,1.81,1.08,
2023-03-29 14:00,12.5,63.60,1.85,1.10,
2023-03-29 15:00,13.3,76.60,2.07,1.23,
2023-03-29 16:00,13.3,68.60,1.96,1.16,
2023-03-29 17:00,13.3,71.60,1.90,1.18,
2023-03-29 18:00,12.5,70.60,1.77,1.11,
2023-03-29 19:00,12.5,72.60,1.77,1.07,
2023-03-29 20:00,5.9,73.60,1.73,1.04,
2023-03-29 21:00,12.5,68.60,1.46,0.93,
2023-03-29 22:00,13.3,65.60,1.42,0.99,
2023-03-29 23:00,14.3,64.60,1.32,0.83,
2023-03-30 00:00,12.5,60.60,1.38,0.87,
2023-03-30 01:00,12.5,59.60,1.20,0.83,
2023-03-30 02:00,13.3,56.60,1.33,0.84,
2023-03-30 03:00,13.3,52.60,1.37,0.84,
2023-03-30 04:00,12.5,57.60,1.13,0.76,
2023-03-30 05:00,12.5,52.60,1.26,0.80,
2023-03-30 06:00,13.3,46.60,1.13,0.80,
2023-03-30 07:00,11.8,53.60,1.03,0.74,
2023-03-30 08:00,13.3,47.60,1.46,0.81,
2023-03-30 09:00,12.5,51.60,1.22,0.75,
2023-03-30 10:00,13.3,54.60,1.61,0.92,
2023-03-30 11:00,5.4,72.60,1.41,0.93,
2023-03-30 14:00,13.3,71.60,1.72,1.00,
2023-03-30 15:00,13.3,72.60,1.35,0.88,
2023-03-30 16:00,13.3,68.60,1.77,0.89,
2023-03-30 17:00,13.3,71.60,1.44,0.91,
2023-03-30 18:00,12.5,80.60,1.33,0.92,
2023-03-30 19:00,12.5,72.60,1.55,0.90,
2023-03-30 20:00,12.5,70.60,1.32,0.80,
2023-03-30 21:00,12.5,67.60,1.21,0.76,
2023-03-30 22:00,11.8,74.60,1.13,0.74,
2023-03-30 23:00,13.3,74.60,1.33,0.86,
2023-03-31 00:00,12.5,73.60,1.38,0.82,
2023-03-31 01:00,4.7,88.60,1.53,0.90,
2023-03-31 02:00,13.3,81.60,1.19,0.84,
2023-03-31 03:00,12.5,74.60,1.26,0.82,
2023-03-31 04:00,13.3,71.60,1.25,0.82,
2023-03-31 05:00,12.5,70.60,1.35,0.81,
2023-03-31 07:00,12.5,67.60,1.35,0.79,
2023-03-31 08:00,12.5,64.60,1.28,0.86,
2023-03-31 09:00,13.3,66.60,1.17,0.84,
2023-03-31 10:00,12.5,72.60,1.42,0.87,
2023-03-31 11:00,12.5,77.60,1.64,0.89,
2023-03-31 12:00,12.5,77.60,1.64,0.92,
2023-03-31 13:00,13.3,77.60,1.53,0.94,
2023-03-31 14:00,4.9,80.60,1.75,0.96,
2023-03-31 15:00,5.7,78.60,1.61,1.08,
2023-03-31 16:00,4.7,78.60,1.76,1.14,
2023-03-31 17:00,5.4,79.60,1.75,1.09,
2023-03-31 18:00,5.7,76.60,1.78,1.03,
2023-03-31 19:00,4.0,73.60,1.66,1.11,
2023-03-31 20:00,13.3,62.60,1.70,1.04,
2023-03-31 21:00,13.3,56.60,1.53,1.03,
2023-03-31 22:00,5.7,61.60,1.50,1.01,
2023-03-31 23:00,14.3,61.60,1.45,1.04,
2023-04-01 00:00,4.5,9.84,,1.19,
2023-04-01 01:00,4.9,67.60,2.09,1.17,
2023-04-01 02:00,5.6,65.60,1.74,1.23,
2023-04-01 03:00,5.9,70.60,2.10,1.26,
2023-04-01 04:00,14.3,63.60,1.77,1.27,
2023-04-01 05:00,5.9,63.60,1.89,1.18,
2023-04-01 07:00,5.7,58.60,2.41,1.30,
2023-04-01 08:00,14.3,57.60,1.78,1.22,
2023-04-01 09:00,4.9,57.60,2.04,1.28,
2023-04-01 10:00,,,,,
2023-04-01 11:00,6.1,50.60,2.25,1.30,
2023-04-01 12:00,15.4,56.60,2.15,1.30,
2023-04-01 14:00,,,,,
2023-04-01 15:00,5.6,51.60,2.37,1.35,
2023-04-01 16:00,14.3,57.60,2.20,1.42,
2023-04-01 17:00,15.4,62.60,2.37,1.38,
2023-04-01 18:00,14.3,52.60,2.16,1.36,
2023-04-01 19:00,14.3,50.60,1.98,1.20,
2023-04-01 20:00,14.3,46.60,2.44,1.35,
2023-04-01 21:00,8.7,43.60,1.74,1.22,
2023-04-01 22:00,14.3,41.60,1.89,1.26,
2023-04-01 23:00,14.3,46.60,1.94,1.20,
2023-04-02 00:00,14.3,49.60,1.99,1.35,
2023-04-02 01:00,13.3,47.60,1.65,1.24,
2023-04-02 02:00,8.0,46.60,2.09,1.25,
2023-04-02 03:00,8.0,43.60,2.56,1.42,
2023-04-02 04:00,13.3,41.60,1.92,1.37,
2023-04-02 05:00,13.3,42.60,2.22,1.43,
2023-04-02 06:00,,,,,
2023-04-02 07:00,8.7,37.60,1.98,1.32,
2023-04-02 08:00,8.0,39.60,2.31,1.39,
2023-04-02 09:00,8.0,46.60,2.29,1.45,
2023-04-02 10:00,,344.26,,,
2023-04-02 11:00,,10.00,,7.14,
2023-04-02 12:00,8.3,52.60,3.06,1.50,
2023-04-02 13:00,7.4,55.60,1.95,1.50,
2023-04-02 14:00,7.7,56.60,3.06,1.44,
2023-04-02 15:00,7.7,54.60,2.84,1.43,
2023-04-02 16:00,8.0,44.60,2.55,1.52,
2023-04-02 17:00,7.7,45.60,2.08,1.40,
2023-04-02 18:00,8.7,39.60,1.99,1.31,
2023-04-02 19:00,8.0,33.60,2.02,1.32,
2023-04-02 20:00,7.4,35.60,2.23,1.29,
2023-04-02 21:00,8.7,35.60,2.07,1.31,
2023-04-02 22:00,8.3,32.60,2.23,1.44,
2023-04-02 23:00,13.3,42.60,2.21,1.36,
2023-04-03 00:00,8.7,44.60,2.30,1.41,
2023-04-03 01:00,14.3,46.60,2.10,1.41,
2023-04-03 02:00,8.7,39.60,2.42,1.43,
2023-04-03 03:00,15.4,39.60,2.23,1.56,
2023-04-03 04:00,15.4,45.60,2.29,1.44,
2023-04-03 05:00,15.4,47.60,2.16,1.44,
2023-04-03 06:00,23.4,6.91,,1.44,
2023-04-03 07:00,14.3,37.60,2.36,1.39,
2023-04-03 08:00,14.3,43.60,1.94,1.35,
2023-04-03 09:00,15.4,48.60,2.42,1.30,
2023-04-03 10:00,14.3,47.60,2.73,1.47,
2023-04-03 11:00,13.3,51.60,2.66,1.44,
2023-04-03 12:00,13.3,51.60,2.65,1.52,
2023-04-03 13:00,14.3,47.60,2.44,1.70,
2023-04-03 14:00,13.3,55.60,2.63,1.53,
2023-04-03 15:00,13.3,50.60,2.66,1.56,
2023-04-03 16:00,14.3,57.60,2.38,1.48,
2023-04-03 17:00,14.3,46.60,2.92,1.38,
2023-04-03 18:00,13.3,49.60,2.47,1.38,
2023-04-03 19:00,14.3,37.60,2.65,1.41,
2023-04-03 20:00,14.3,38.60,2.10,1.22,
2023-04-03 21:00,12.5,37.60,1.92,1.18,
2023-04-03 22:00,12.5,43.60,1.91,1.17,
2023-04-03 23:00,12.5,47.60,1.66,1.14,
2023-04-04 00:00,12.5,48.60,1.80,1.16,
2023-04-04 01:00,14.3,51.60,1.87,1.16,
2023-04-04 02:00,13.3,53.60,1.65,1.03,
2023-04-04 03:00,14.3,51.60,1.71,1.04,
2023-04-04 04:00,12.5,53.60,1.85,1.08,
2023-04-04 05:00,13.3,61.60,2.02,1.18,
2023-04-04 06:00,5.6,64.60,1.70,1.06,
2023-04-04 07:00,11.8,57.60,1.88,1.05,
2023-04-04 08:00,13.3,58.60,1.59,1.04,
2023-04-04 09:00,13.3,58.60,1.82,1.06,
2023-04-04 10:00,14.3,65.60,1.77,1.02,
2023-04-04 11:00,13.3,62.60,1.56,1.00,
2023-04-04 12:00,4.1,66.60,1.54,1.00,
2023-04-04 13:00,11.8,73.60,1.93,1.06,
2023-04-04 14:00,13.3,73.60,1.69,1.04,
2023-04-04 15:00,4.9,65.60,1.70,0.96,
2023-04-04 16:00,5.7,73.60,1.56,1.05,
2023-04-04 17:00,15.4,65.60,1.80,1.13,
2023-04-04 18:00,5.4,82.60,2.28,1.19,
2023-04-04 19:00,15.4,74.60,1.77,1.18,
2023-04-04 20:00,15.4,66.60,1.65,1.09,
2023-04-04 21:00,15.4,60.60,1.72,1.13,
2023-04-04 22:00,15.4,56.60,1.87,1.08,
2023-04-04 23:00,15.4,65.60,1.65,1.10,
2023-04-05 00:00,15.4,57.60,1.83,1.07,
2023-04-05 01:00,14.3,65.60,2.07,1.08,
2023-04-05 02:00,14.3,57.60,1.58,1.05,
2023-04-05 03:00,14.3,57.60,1.84,1.16,
2023-04-05 04:00,14.3,62.60,1.66,1.11,
2023-04-05 05:00,14.3,66.60,1.69,1.14,
2023-04-05 06:00,14.3,69.60,1.90,1.08,
2023-04-05 07:00,5.7,67.60,1.76,1.06,
2023-04-05 08:00,5.9,61.60,1.75,1.08,
2023-04-05 09:00,5.7,67.60,2.03,1.09,
2023-04-05 10:00,4.9,64.60,1.99,1.03,
2023-04-05 11:00,5.7,66.60,1.59,1.03,
2023-04-05 12:00,14.3,63.60,1.54,0.99,
2023-04-05 13:00,5.3,62.60,1.90,1.02,
2023-04-05 14:00,5.1,65.60,1.85,1.03,
2023-04-05 15:00,6.1,66.60,1.72,1.00,
2023-04-05 16:00,5.1,70.60,1.87,1.21,
2023-04-05 17:00,5.4,67.60,1.94,1.08,
2023-04-05 18:00,5.9,69.60,1.69,1.01,
2023-04-05 19:00,5.7,63.60,1.63,1.09,
2023-04-05 20:00,6.5,61.60,1.78,1.01,
2023-04-05 21:00,5.9,54.60,1.67,1.02,
2023-04-05 22:00,,,,,
2023-04-05 23:00,4.9,53.60,1.66,1.16,
2023-04-06 00:00,7.4,58.60,1.62,1.12,
2023-04-06 01:00,5.3,58.60,1.76,1.16,
2023-04-06 02:00,5.7,56.60,1.74,1.14,
2023-04-06 03:00,,10.16,,,
2023-04-06 04:00,6.7,294.60,1.51,1.10,
2023-04-06 05:00,,,,,
2023-04-06 06:00,5.6,72.60,1.68,1.16,
2023-04-06 08:00,6.3,66.60,1.99,1.28,
2023-04-06 10:00,6.5,53.60,2.18,1.25,
2023-04-06 11:00,5.0,55.60,1.78,1.16,
2023-04-06 12:00,5.1,58.60,1.65,1.16,
2023-04-06 13:00,5.4,71.60,2.36,1.33,
2023-04-06 14:00,5.4,66.60,2.21,1.31,
2023-04-06 15:00,5.7,70.60,2.26,1.26,
2023-04-06 16:00,5.9,66.60,2.02,1.18,
2023-04-06 17:00,4.8,79.60,2.15,1.32,
2023-04-06 19:00,6.1,84.60,2.67,1.54,
2023-04-06 20:00,5.9,86.60,2.85,1.53,
2023-04-06 21:00,5.7,81.60,1.96,1.34,
2023-04-06 22:00,6.5,75.60,2.16,1.23,
2023-04-06 23:00,,,,,
2023-04-07 00:00,5.6,69.60,2.09,1.16,
2023-04-07 01:00,5.9,64.60,1.57,1.11,
2023-04-07 02:00,5.7,69.60,1.64,1.01,
2023-04-07 03:00,5.9,69.60,1.53,1.08,
2023-04-07 04:00,6.3,69.60,1.58,0.99,
2023-04-07 05:00,,,,,
2023-04-07 06:00,5.7,67.60,1.70,1.13,
2023-04-07 07:00,6.1,74.60,2.10,1.13,
2023-04-07 08:00,4.8,78.60,1.74,1.15,
2023-04-07 09:00,6.1,71.60,2.12,1.08,
2023-04-07 10:00,6.3,74.60,1.50,1.01,
2023-04-07 11:00,6.7,63.60,1.71,1.02,
2023-04-07 12:00,6.1,63.60,1.62,1.02,
2023-04-07 13:00,6.1,70.60,1.64,1.01,
2023-04-07 14:00,6.1,76.60,1.70,1.04,
2023-04-07 15:00,6.5,80.60,1.77,1.01,
2023-04-07 16:00,5.7,73.60,1.90,1.03,
2023-04-07 17:00,6.7,75.60,1.66,0.96,
2023-04-07 18:00,6.3,73.60,1.46,0.98,
2023-04-07 19:00,5.9,70.60,1.34,0.94,
2023-04-07 20:00,6.7,73.60,1.47,0.91,
2023-04-07 21:00,6.5,73.60,2.00,0.97,
2023-04-07 22:00,21.5,353.48,,6.43,
2023-04-07 23:00,6.5,66.60,1.49,0.88,
2023-04-08 00:00,6.3,63.60,1.61,0.89,
2023-04-08 01:00,6.3,54.60,1.57,0.90,
2023-04-08 02:00,8.3,69.60,1.50,0.88,
2023-04-08 03:00,6.1,72.60,1.48,0.95,
2023-04-08 04:00,4.9,85.60,1.68,1.12,
2023-04-08 05:00,5.9,88.60,2.00,1.20,
2023-04-08 06:00,6.3,85.60,1.90,1.29,
2023-04-08 07:00,5.7,90.60,2.18,1.21,
2023-04-08 08:00,5.9,86.60,1.85,1.32,
2023-04-08 09:00,6.1,85.60,2.74,1.45,
2023-04-08 10:00,5.7,85.60,2.04,1.33,
2023-04-08 11:00,6.9,81.60,2.46,1.31,
2023-04-08 12:00,6.7,79.60,2.13,1.30,
2023-04-08 13:00,7.1,61.60,1.93,1.25,
2023-04-08 14:00,8.3,65.60,1.94,1.21,
2023-04-08 15:00,8.7,69.60,1.99,1.25,
2023-04-08 16:00,7.7,69.60,1.74,1.08,
2023-04-08 17:00,6.9,68.60,1.48,1.07,
2023-04-08 18:00,8.3,65.60,1.68,1.13,
2023-04-08 19:00,,340.16,,,
2023-04-08 20:00,8.7,69.60,1.92,1.07,
2023-04-08 21:00,9.5,67.60,1.56,0.97,
2023-04-08 22:00,5.7,69.60,2.05,1.00,
2023-04-08 23:00,9.1,63.60,1.63,1.09,
2023-04-09 00:00,9.1,58.60,1.51,1.04,
2023-04-09 01:00,,,,,
2023-04-09 02:00,10.0,57.60,1.84,1.10,
2023-04-09 03:00,7.1,54.60,1.73,1.13,
2023-04-09 04:00,4.5,61.60,1.64,1.07,
2023-04-09 05:00,8.7,63.60,1.87,1.08,
2023-04-09 06:00,9.1,69.60,1.70,1.05,
2023-04-09 07:00,9.5,72.60,1.64,0.98,
2023-04-09 08:00,4.5,79.60,1.60,1.00,
2023-04-09 09:00,9.5,74.60,1.65,0.97,
2023-04-09 10:00,9.1,74.60,1.92,1.02,
2023-04-09 11:00,4.8,71.60,1.83,1.02,
2023-04-09 12:00,5.3,65.60,1.66,0.98,
2023-04-09 13:00,8.7,64.60,1.65,0.99,
2023-04-09 14:00,9.1,62.60,1.62,0.99,
2023-04-09 15:00,8.7,69.60,1.52,0.95,
2023-04-09 16:00,8.3,73.60,1.51,0.95,
2023-04-09 17:00,6.1,72.60,1.53,0.95,
2023-04-09 18:00,5.1,74.60,1.76,0.99,
2023-04-09 19:00,4.8,80.60,1.79,1.04,
2023-04-09 20:00,5.3,78.60,1.52,1.00,
2023-04-09 21:00,5.6,80.60,1.68,1.00,
2023-04-09 22:00,5.9,79.60,1.56,0.98,
2023-04-09 23:00,4.7,73.60,1.63,0.98,
2023-04-10 00:00,6.3,69.60,1.57,0.92,
2023-04-10 01:00,5.9,71.60,1.36,0.89,
2023-04-10 02:00,8.7,73.60,1.30,0.86,
2023-04-10 03:00,5.9,72.60,1.47,0.80,
2023-04-10 04:00,7.1,71.60,1.33,0.79,
2023-04-10 05:00,8.0,71.60,1.19,0.74,
2023-04-10 06:00,10.0,73.60,1.21,0.70,
2023-04-10 07:00,6.3,71.60,1.32,0.70,
2023-04-10 08:00,8.3,68.60,1.15,0.71,
2023-04-10 09:00,7.1,70.60,1.10,0.69,
2023-04-10 10:00,5.4,70.60,1.14,0.66,
2023-04-10 11:00,5.3,69.60,1.12,0.68,
2023-04-10 12:00,8.7,65.60,1.02,0.67,
2023-04-10 13:00,9.5,60.60,0.91,0.63,
2023-04-10 14:00,8.7,56.60,1.17,0.71,
2023-04-10 15:00,13.3,56.60,1.11,0.68,
2023-04-10 16:00,9.1,67.60,1.13,0.71,
2023-04-10 18:00,9.5,70.60,1.10,0.70,
2023-04-10 19:00,9.5,67.60,1.40,0.77,
2023-04-10 20:00,5.9,79.60,1.14,0.73,
2023-04-10 21:00,9.5,79.60,1.33,0.77,
2023-04-10 22:00,5.6,86.60,1.33,0.77,
2023-04-10 23:00,13.3,82.60,1.39,0.77,
2023-04-11 00:00,4.8,81.60,1.09,0.74,
2023-04-11 01:00,12.5,84.60,1.03,0.70,
2023-04-11 02:00,9.5,74.60,1.15,0.69,
2023-04-11 03:00,8.7,72.60,1.05,0.67,
2023-04-11 04:00,12.5,64.60,0.89,0.66,
2023-04-11 05:00,,,,,
2023-04-11 06:00,12.5,71.60,0.90,0.57,
2023-04-11 07:00,9.1,72.60,0.97,0.58,
2023-04-11 08:00,12.5,71.60,0.84,0.59,
2023-04-11 09:00,14.3,72.60,0.97,0.58,
2023-04-11 10:00,12.5,76.60,0.98,0.57,
2023-04-11 11:00,9.5,73.60,0.94,0.55,
2023-04-11 12:00,9.1,66.60,1.24,0.56,
2023-04-11 13:00,8.7,62.60,1.02,0.56,
2023-04-11 14:00,13.3,56.60,0.96,0.57,
2023-04-11 15:00,15.4,48.60,1.03,0.57,
2023-04-11 16:00,14.3,40.60,1.07,0.61,
2023-04-11 17:00,14.3,40.60,1.04,0.62,
2023-04-11 18:00,14.3,19.60,1.47,0.75,
2023-04-11 19:00,14.3,33.60,1.07,0.61,
2023-04-11 20:00,13.3,25.60,1.28,0.70,
2023-04-11 21:00,13.3,13.60,1.67,0.92,
2023-04-11 22:00,12.5,21.60,1.24,0.80,
2023-04-11 23:00,12.5,16.60,1.56,0.87,
2023-04-12 00:00,12.5,19.60,1.19,0.80,
2023-04-12 01:00,12.5,15.60,1.54,0.93,
2023-04-12 02:00,11.8,17.60,1.76,0.98,
2023-04-12 03:00,12.5,6.60,1.87,1.20,
2023-04-12 04:00,11.1,16.60,1.45,0.97,
2023-04-12 05:00,11.8,13.60,1.55,1.00,
2023-04-12 06:00,12.5,17.60,1.76,0.96,
2023-04-12 07:00,11.1,17.60,1.66,0.98,
2023-04-12 08:00,11.1,18.60,1.48,1.03,
2023-04-12 09:00,12.5,25.60,1.49,1.00,
2023-04-12 10:00,11.8,34.60,1.79,1.07,
2023-04-12 11:00,11.1,32.60,1.73,1.18,
2023-04-12 12:00,,,,,
2023-04-12 13:00,11.8,34.60,1.99,1.14,
2023-04-12 14:00,11.1,34.60,1.72,1.14,
2023-04-12 15:00,11.1,32.60,1.72,1.05,
2023-04-12 16:00,11.1,24.60,1.86,1.12,
2023-04-12 17:00,11.1,21.60,1.72,1.00,
2023-04-12 18:00,11.8,27.60,1.43,0.93,
2023-04-12 19:00,10.5,18.60,1.52,0.99,
2023-04-12 20:00,11.1,18.60,1.80,1.02,
2023-04-12 21:00,11.8,20.60,1.49,1.01,
2023-04-12 22:00,11.1,23.60,1.69,0.98,
2023-04-12 23:00,10.5,21.60,1.80,1.08,
2023-04-13 00:00,11.8,23.60,1.77,1.04,
2023-04-13 01:00,11.8,17.60,2.07,1.18,
2023-04-13 02:00,11.8,20.60,2.21,1.30,
2023-04-13 03:00,11.1,18.60,1.96,1.27,
2023-04-13 04:00,11.1,11.60,1.70,1.09,
2023-04-13 05:00,11.1,6.60,2.43,1.24,
2023-04-13 06:00,11.1,6.60,1.96,1.30,
2023-04-13 07:00,11.1,10.60,1.91,1.33,
2023-04-13 08:00,10.5,12.60,2.20,1.18,
2023-04-13 09:00,10.5,12.60,1.99,1.34,
2023-04-13 10:00,11.1,16.60,1.75,1.17,
2023-04-13 11:00,10.5,16.60,2.23,1.21,
2023-04-13 12:00,11.1,26.60,1.99,1.13,
2023-04-13 13:00,10.0,26.60,2.22,1.21,
2023-04-13 14:00,10.5,23.60,2.21,1.27,
2023-04-13 15:00,11.1,24.60,1.83,1.13,
2023-04-13 17:00,10.0,15.60,1.94,1.18,
2023-04-13 18:00,11.1,19.60,2.16,1.12,
2023-04-13 19:00,10.0,17.60,1.83,1.14,
2023-04-13 20:00,10.0,20.60,1.94,1.05,
2023-04-13 21:00,10.5,26.60,1.54,1.05,
2023-04-13 22:00,8.7,26.60,1.61,1.04,
2023-04-13 23:00,10.5,26.60,1.67,1.05,
2023-04-14 00:00,11.1,23.60,1.84,1.13,
2023-04-14 01:00,10.0,28.60,1.72,1.04,
2023-04-14 02:00,11.1,38.60,1.79,0.93,
2023-04-14 03:00,9.5,16.60,1.82,1.16,
2023-04-14 04:00,10.0,17.60,1.75,1.15,
2023-04-14 05:00,0.0,,,,
2023-04-14 06:00,9.5,20.60,1.88,0.99,
2023-04-14 07:00,9.5,22.60,1.52,0.96,
2023-04-14 08:00,10.0,20.60,1.54,1.03,
2023-04-14 09:00,9.5,30.60,1.83,0.91,
2023-04-14 10:00,8.0,29.60,1.66,0.90,
2023-04-14 12:00,10.0,28.60,1.83,1.05,
2023-04-14 13:00,10.5,32.60,1.63,0.99,
2023-04-14 14:00,10.5,32.60,1.76,0.98,
2023-04-14 15:00,10.0,28.60,1.65,1.03,
2023-04-14 16:00,9.5,27.60,1.50,1.00,
2023-04-14 17:00,8.3,25.60,1.62,1.03,
2023-04-14 18:00,8.0,25.60,1.65,0.97,
2023-04-14 19:00,10.5,19.60,1.72,1.03,
2023-04-14 20:00,9.5,17.60,1.63,0.98,
2023-04-14 21:00,9.5,30.60,1.39,0.88,
2023-04-14 22:00,9.5,28.60,1.61,0.99,
2023-04-14 23:00,8.3,34.60,1.56,1.00,
2023-04-15 00:00,10.5,31.60,1.60,1.02,
2023-04-15 01:00,7.7,31.60,1.71,1.01,
2023-04-15 02:00,8.0,31.60,1.77,0.99,
2023-04-15 03:00,7.4,30.60,1.92,1.14,
2023-04-15 04:00,7.7,27.60,2.10,1.11,
2023-04-15 05:00,8.3,23.60,1.73,1.13,
2023-04-15 06:00,7.7,24.60,2.09,1.23,
2023-04-15 07:00,,,,,
2023-04-15 08:00,7.4,25.60,1.65,1.12,
2023-04-15 09:00,7.4,25.60,1.73,1.14,
2023-04-15 10:00,7.4,30.60,1.56,1.01,
2023-04-15 11:00,7.7,31.60,1.67,1.03,
2023-04-15 12:00,6.9,33.60,1.56,0.97,
2023-04-15 13:00,7.4,31.60,1.47,0.97,
2023-04-15 14:00,7.4,39.60,1.62,0.95,
2023-04-15 15:00,7.1,40.60,1.56,1.02,
2023-04-15 16:00,7.4,40.60,1.79,1.03,
2023-04-15 17:00,7.7,35.60,2.05,1.05,
2023-04-15 18:00,7.4,31.60,1.62,1.05,
2023-04-15 19:00,8.0,30.60,1.87,1.07,
2023-04-15 20:00,7.4,30.60,1.82,1.12,
2023-04-15 21:00,7.7,29.60,1.73,1.18,
2023-04-15 22:00,7.1,23.60,1.72,1.09,
2023-04-15 23:00,7.1,32.60,1.82,0.98,
2023-04-16 00:00,7.7,34.60,1.94,1.09,
2023-04-16 01:00,7.7,37.60,1.88,1.10,
2023-04-16 02:00,7.7,40.60,1.88,1.14,
2023-04-16 03:00,7.7,44.60,1.80,1.16,
2023-04-16 04:00,7.4,39.60,1.83,1.20,
2023-04-16 06:00,7.1,35.60,1.84,1.22,
2023-04-16 07:00,9.1,33.60,1.66,1.09,
2023-04-16 08:00,7.1,35.60,1.89,1.10,
2023-04-16 09:00,7.4,32.60,1.92,1.22,
2023-04-16 10:00,6.5,38.60,1.76,1.11,
2023-04-16 11:00,7.4,37.60,1.93,1.27,
2023-04-16 12:00,6.7,36.60,1.99,1.12,
2023-04-16 13:00,7.4,41.60,1.88,1.19,
2023-04-16 14:00,6.7,40.60,1.86,1.19,
2023-04-16 15:00,6.7,51.60,2.09,1.15,
2023-04-16 16:00,6.3,51.60,2.08,1.19,
2023-04-16 17:00,7.1,55.60,2.11,1.12,
2023-04-16 18:00,7.1,40.60,2.09,1.08,
2023-04-16 19:00,7.1,36.60,1.81,1.02,
2023-04-16 20:00,7.4,34.60,1.55,0.99,
2023-04-16 21:00,6.9,33.60,1.42,0.96,
2023-04-16 22:00,6.9,38.60,1.33,0.85,
2023-04-16 23:00,,29.60,,,
2023-04-17 00:00,7.7,34.60,1.39,0.85,
2023-04-17 01:00,7.7,36.60,1.50,0.93,
2023-04-17 02:00,7.4,38.60,1.28,0.84,
2023-04-17 03:00,4.9,44.60,1.32,0.89,
2023-04-17 04:00,8.0,42.60,1.45,0.87,
2023-04-17 05:00,2.3,10.00,10.60,,
2023-04-17 07:00,6.9,41.60,1.46,0.84,
2023-04-17 08:00,7.4,35.60,1.50,0.88,
2023-04-17 09:00,6.5,32.60,1.43,0.92,
2023-04-17 10:00,7.1,33.60,1.29,0.84,
2023-04-17 11:00,6.9,30.60,1.52,0.96,
2023-04-17 12:00,7.1,31.60,1.75,0.86,
2023-04-17 13:00,6.5,28.60,1.40,0.81,
2023-04-17 14:00,7.7,33.60,1.43,0.80,
2023-04-17 15:00,8.0,34.60,1.30,0.75,
2023-04-17 16:00,8.0,41.60,1.28,0.67,
2023-04-17 17:00,7.4,35.60,1.19,0.71,
2023-04-17 18:00,7.7,39.60,1.15,0.68,
2023-04-17 19:00,7.1,32.60,1.20,0.83,
2023-04-17 20:00,7.4,27.60,1.21,0.77,
2023-04-17 21:00,6.9,23.60,1.04,0.73,
2023-04-17 22:00,7.1,25.60,1.30,0.73,
2023-04-17 23:00,6.9,27.60,1.25,0.71,
2023-04-18 00:00,6.9,30.60,1.05,0.67,
2023-04-18 01:00,6.5,27.60,0.99,0.62,
2023-04-18 02:00,6.7,30.60,0.99,0.59,
2023-04-18 03:00,7.4,47.60,0.85,0.54,
2023-04-18 04:00,6.3,48.60,1.00,0.60,
2023-04-18 05:00,7.1,48.60,0.93,0.54,
2023-04-18 06:00,6.7,48.60,1.01,0.50,
2023-04-18 07:00,7.4,44.60,0.96,0.53,
2023-04-18 08:00,6.9,50.60,0.96,0.56,
2023-04-18 09:00,6.7,47.60,0.99,0.60,
2023-04-18 10:00,6.9,40.60,0.99,0.59,
2023-04-18 11:00,6.5,39.60,0.92,0.59,
2023-04-18 12:00,6.7,41.60,0.97,0.54,
2023-04-18 13:00,6.9,53.60,0.95,0.61,
2023-04-18 14:00,6.9,62.60,0.91,0.58,
2023-04-18 15:00,6.1,74.60,1.22,0.63,
2023-04-18 16:00,4.0,77.60,1.29,0.65,
2023-04-18 17:00,3.7,83.60,1.04,0.64,